Location: Newark
(7.0858°N, 171.3717°E)
Time: 09:02:35
(UTC+00:00)

A-11 Canister half - Pass Details

Date: 05 August 2021
Orbit: 1526 x 1683 km, 47.3° (Epoch: 23 September)

Event Time Altitude Azimuth Distance (km) Brightness Sun altitude
Rises 09:29:26 0° 281° (W) 4,732 12.5 -37.0°
Reaches altitude 10° 09:34:51 10° 256° (WSW) 3,720 11.5 -38.2°
Maximum altitude 09:38:48 13° 230° (SW) 3,448 11.0 -39.1°
Enters shadow 09:42:31 10° 206° (SSW) 3,664 10.9 -39.9°
